DW9996 Weather Reports


time (UTC)temp
F
wind
direction
speed
knots
gust
knots
rain 1hr
in
rain 24hr
in
rain mn
in
humidity
%
barometer
mb
20211026183029 54 273 10.4 18.2 0.00 0.01 0.00 46 1002.5
20211026181506 53 278 11.3 18.2 0.00 0.01 0.00 47 1002.6
20211026180003 52 309 10.4 18.2 0.00 0.01 0.00 50 1002.5
20211026174612 51 259 8.7 18.2 0.00 0.01 0.00 54 1002.6
20211026173140 50 314 10.4 18.2 0.00 0.01 0.00 53 1002.7
20211026171602 49 284 9.6 15.6 0.00 0.01 0.00 54 1002.5
20211026170212 48 284 7.0 13.9 0.00 0.01 0.00 58 1002.4
20211026164558 46 287 5.2 10.4 0.00 0.01 0.00 70 1002.4
20211026163114 42 251 4.3 7.8 0.00 0.01 0.00 73 1002.4
20211026161547 41 234 6.1 10.4 0.00 0.01 0.00 75 1002.3
20211026160126 41 254 5.2 8.7 0.00 0.01 0.00 76 1002.2
20211026154558 40 234 5.2 11.3 0.00 0.01 0.00 77 1002.3
20211026153109 39 238 7.0 11.3 0.00 0.01 0.00 77 1002.3
20211026151604 39 248 5.2 8.7 0.00 0.01 0.00 76 1002.1
20211026150059 39 227 5.2 8.7 0.00 0.01 0.00 77 1002.2
20211026144639 38 230 5.2 8.7 0.00 0.01 0.00 77 1002.0
20211026143051 37 232 5.2 7.8 0.00 0.01 0.00 79 1001.7
20211026141540 37 250 4.3 7.0 0.00 0.01 0.00 80 1001.4
20211026140143 36 241 1.7 3.5 0.00 0.01 0.00 80 1001.0
20211026134609 37 247 1.7 3.5 0.00 0.01 0.00 80 1001.4
20211026133032 37 233 1.7 7.0 0.00 0.01 0.00 79 1001.4
20211026131535 37 244 0.9 2.6 0.00 0.01 0.00 79 1001.3
20211026130027 38 240 1.7 2.6 0.00 0.01 0.00 78 1001.1
20211026124559 38 229 2.6 5.2 0.00 0.01 0.00 79 1001.2
20211026123033 37 227 5.2 7.0 0.00 0.01 0.00 80 1001.1
20211026121524 37 227 3.5 5.2 0.00 0.01 0.00 79 1001.2
20211026120023 38 231 2.6 5.2 0.00 0.01 0.00 79 1001.3
20211026114654 38 229 5.2 7.0 0.00 0.01 0.00 79 1001.4
20211026113022 37 229 2.6 5.2 0.00 0.01 0.00 79 1001.6
20211026111550 37 229 2.6 5.2 0.00 0.01 0.00 80 1001.4
20211026110052 36 229 0.0 3.5 0.00 0.01 0.00 80 1001.2
20211026104605 36 232 1.7 3.5 0.00 0.01 0.00 80 1000.8
20211026103014 36 246 1.7 4.3 0.00 0.01 0.00 79 1000.3
20211026101518 37 257 0.9 3.5 0.00 0.01 0.00 78 1000.4
20211026100034 37 244 0.9 2.6 0.00 0.01 0.00 77 1000.2
20211026094530 38 244 0.9 3.5 0.00 0.01 0.00 75 1000.2
20211026093008 38 313 0.9 1.7 0.00 0.01 0.00 76 1000.2
20211026091504 38 297 0.9 2.6 0.00 0.01 0.00 76 1000.2
20211026090011 38 304 0.9 4.3 0.00 0.01 0.00 77 1000.1
20211026084736 38 267 1.7 3.5 0.00 0.01 0.00 76 1000.1
20211026083144 40 286 1.7 4.3 0.00 0.01 0.00 74 999.8
20211026081608 41 261 2.6 6.1 0.00 0.01 0.00 72 999.9
20211026080117 41 273 3.5 7.0 0.00 0.01 0.00 74 999.9
20211026074706 41 271 3.5 5.2 0.00 0.01 0.00 72 999.7
20211026073123 42 287 2.6 6.1 0.00 0.01 0.00 71 999.7
20211026071615 43 289 2.6 5.2 0.00 0.01 0.00 70 999.9
20211026070130 43 273 2.6 5.2 0.00 0.01 0.00 71 999.7
20211026064656 42 250 2.6 4.3 0.00 0.01 0.00 75 999.8
20211026063136 42 290 0.9 3.5 0.00 0.01 0.00 75 999.7
20211026061614 41 282 1.7 3.5 0.00 0.01 0.00 78 999.7
20211026060119 40 256 1.7 2.6 0.00 0.01 0.00 79 999.1
20211026054531 41 289 0.9 1.7 0.00 0.01 0.01 79 998.5
20211026053104 41 294 1.7 4.3 0.00 0.01 0.01 78 998.6
20211026051547 42 275 1.7 3.5 0.00 0.01 0.01 78 998.9
20211026050032 42 283 2.6 7.0 0.00 0.01 0.01 78 998.8
20211026044543 42 248 2.6 5.2 0.00 0.01 0.01 80 998.5
20211026043025 44 284 1.7 2.6 0.00 0.01 0.01 79 998.4
20211026041550 44 263 1.7 3.5 0.00 0.01 0.01 81 998.4
20211026040039 45 306 1.7 2.6 0.00 0.01 0.01 81 998.7
20211026034517 45 255 1.7 3.5 0.00 0.01 0.01 82 998.5
20211026033019 45 287 0.9 3.5 0.00 0.01 0.01 82 998.8
20211026031539 46 281 2.6 6.1 0.00 0.01 0.01 82 998.7
20211026030015 46 285 1.7 5.2 0.00 0.01 0.01 82 998.8
20211026024527 46 236 0.9 3.5 0.00 0.01 0.01 82 998.4
20211026023023 46 220 2.6 4.3 0.00 0.01 0.01 82 998.3
20211026021526 46 231 2.6 4.3 0.00 0.01 0.01 82 998.1
20211026020012 46 217 3.5 5.2 0.00 0.01 0.01 82 998.1
20211026014530 46 236 4.3 6.1 0.00 0.01 0.01 82 998.3
20211026013009 46 234 2.6 4.3 0.00 0.01 0.01 82 998.2
20211026011526 46 226 0.9 1.7 0.00 0.01 0.01 81 998.1
20211026010033 46 215 0.9 3.5 0.00 0.01 0.01 81 998.1
20211026004506 47 44 0.0 1.7 0.00 0.01 0.01 80 997.6
20211026003006 47 44 0.0 1.7 0.00 0.01 0.01 80 997.7
20211026001504 47 44 0.9 1.7 0.00 0.01 0.01 80 997.5
20211026000002 48 44 0.0 0.0 0.00 0.01 0.01 79 997.3
20211025234649 48 44 0.0 0.0 0.00 0.01 0.01 79 997.2
20211025233231 48 44 0.0 0.9 0.00 0.01 0.01 79 997.2
20211025231631 48 44 0.0 0.0 0.01 0.01 0.01 78 997.0
20211025230131 49 44 0.0 0.0 0.01 0.01 0.01 77 997.1
20211025224634 49 44 0.0 0.9 0.01 0.01 0.01 77 997.0
20211025223124 49 78 0.9 4.3 0.01 0.01 0.01 76 996.5
20211025221826 49 74 0.9 2.6 0.00 0.00 0.00 75 996.6
20211025220101 50 55 0.9 2.6 0.00 0.00 0.00 74 996.7
20211025214626 50 38 0.0 1.7 0.00 0.00 0.00 73 996.5
20211025213218 50 38 1.7 3.5 0.00 0.00 0.00 72 996.1
20211025211707 50 34 0.9 2.6 0.00 0.00 0.00 72 996.1
20211025210303 50 36 1.7 3.5 0.00 0.00 0.00 70 996.0
20211025204626 50 43 1.7 5.2 0.00 0.00 0.00 68 995.9
20211025203130 50 45 3.5 5.2 0.00 0.00 0.00 67 995.7
20211025201636 51 47 2.6 6.1 0.00 0.00 0.00 67 995.8
20211025200157 51 5 0.9 6.1 0.00 0.00 0.00 67 995.8
20211025194723 50 35 1.7 7.0 0.00 0.00 0.00 68 995.7
20211025193109 50 21 2.6 6.1 0.00 0.00 0.00 69 995.4
20211025191556 50 5 1.7 7.0 0.00 0.00 0.00 71 995.4
20211025190112 51 88 5.2 9.6 0.00 0.00 0.00 69 995.5
20211025184610 53 108 3.5 7.0 0.00 0.00 0.00 61 995.4